TimeCDT,TemperatureF,Dew PointF,Humidity,Sea Level PressureIn,VisibilityMPH,Wind Direction,Wind SpeedMPH,Gust SpeedMPH,PrecipitationIn,Events,Conditions,WindDirDegrees,DateUTC
12:54 AM,42.1,37.9,85,30.23,10.0,NNW,3.5,-,N/A,,Clear,330,2011-10-01 05:54:00
1:54 AM,41.0,37.0,86,30.24,10.0,North,3.5,-,N/A,,Clear,350,2011-10-01 06:54:00
2:54 AM,37.0,33.1,86,30.25,10.0,Calm,Calm,-,N/A,,Clear,0,2011-10-01 07:54:00
3:54 AM,37.4,33.8,87,30.25,10.0,North,3.5,-,N/A,,Clear,350,2011-10-01 08:54:00
4:54 AM,37.4,35.6,93,30.26,10.0,North,5.8,-,N/A,,Clear,350,2011-10-01 09:54:00
5:54 AM,35.1,33.1,92,30.27,10.0,Variable,3.5,-,N/A,,Clear,0,2011-10-01 10:54:00
6:54 AM,37.0,34.0,89,30.29,10.0,Calm,Calm,-,N/A,,Clear,0,2011-10-01 11:54:00
7:54 AM,36.0,33.1,89,30.31,10.0,Calm,Calm,-,N/A,,Clear,0,2011-10-01 12:54:00
8:54 AM,44.6,37.4,76,30.31,8.0,Calm,Calm,-,N/A,,Clear,0,2011-10-01 13:54:00
9:54 AM,51.8,41.0,67,30.31,10.0,SSE,3.5,-,N/A,,Clear,150,2011-10-01 14:54:00
10:54 AM,60.1,41.0,49,30.32,10.0,SSE,5.8,-,N/A,,Clear,150,2011-10-01 15:54:00
11:54 AM,66.0,39.9,38,30.30,10.0,SSE,8.1,-,N/A,,Clear,150,2011-10-01 16:54:00
12:54 PM,69.8,39.2,33,30.28,10.0,SE,11.5,17.3,N/A,,Clear,140,2011-10-01 17:54:00
1:54 PM,71.6,37.4,29,30.26,10.0,SSE,8.1,-,N/A,,Clear,150,2011-10-01 18:54:00
2:54 PM,73.0,36.0,26,30.22,10.0,South,8.1,-,N/A,,Clear,190,2011-10-01 19:54:00
3:54 PM,73.9,36.0,25,30.21,10.0,SSE,10.4,-,N/A,,Clear,150,2011-10-01 20:54:00
4:54 PM,73.9,36.0,25,30.20,10.0,SE,9.2,-,N/A,,Clear,140,2011-10-01 21:54:00
5:54 PM,72.0,37.0,28,30.19,10.0,SE,9.2,-,N/A,,Clear,130,2011-10-01 22:54:00
6:54 PM,66.2,37.4,35,30.19,10.0,SE,9.2,-,N/A,,Clear,140,2011-10-01 23:54:00
7:54 PM,62.1,37.0,39,30.20,10.0,SE,6.9,-,N/A,,Clear,140,2011-10-02 00:54:00
8:54 PM,61.0,36.0,39,30.20,10.0,SSE,10.4,-,N/A,,Clear,150,2011-10-02 01:54:00
9:54 PM,54.0,36.0,51,30.21,10.0,South,5.8,-,N/A,,Clear,170,2011-10-02 02:54:00
10:54 PM,50.0,37.0,61,30.21,10.0,South,5.8,-,N/A,,Clear,170,2011-10-02 03:54:00
11:54 PM,51.1,37.0,59,30.21,10.0,South,4.6,-,N/A,,Clear,180,2011-10-02 04:54:00